Location: Baix
(44.7118°N, 4.7648°E)
Time: 10:47:38
(UTC+00:00)

Vanguard 2 Rocket - Pass Details

Date: 29 November 2020
Orbit: 554 x 3325 km, 32.9° (Epoch: 21 January)

Event Time Altitude Azimuth Distance (km) Brightness Sun altitude
Rises 06:15:21 0° 218° (SW) 6,846 11.2 -7.3°
Reaches altitude 10° 06:20:11 10° 211° (SSW) 6,050 11.0 -6.5°
Maximum altitude 06:37:25 38° 152° (SSE) 4,305 10.9 -3.7°
Drops below altitude 10° 06:53:02 10° 93° (E) 5,550 12.1 -1.3°
Sets 06:57:11 0° 86° (E) 6,254 12.2 -0.7°
